Regional Weather Roundup
Issued by NWS

Home | Current Version | Previous Version | Text Only | Print | Product List | Glossary Off
Versions: 1 2 3 4 5 6 7 8 9 10 11 12 13 14 15 16 17 18 19 20 21 22 23 24 25 26 27 28 29 30 31 32 33 34 35 36 37 38 39 40 41 42 43 44 45 46 47 48 49 50

000
ASUS43 KDTX 261101
RWRMI
MICHIGAN HOURLY REGIONAL WEATHER ROUNDUP
NATIONAL WEATHER SERVICE DETROIT/PONTIAC MI
700 AM EDT THU MAY 26 2016

NOTE: "FAIR" INDICATES FEW OR NO CLOUDS BELOW 12,000 FEET WITH NO
SIGNIFICANT WEATHER AND/OR OBSTRUCTION TO VISIBILITY.

MIZ047>049-052>055-059>063-066>070-074>076-081>083-261200-
SOUTHEAST LOWER MICHIGAN

CITY           SKY/WX    TMP DP  RH WIND       PRES   REMARKS
ADRIAN         CLOUDY    67  62  84 CALM      29.99R
ALMA           CLOUDY    63  63  99 S3        29.93F
ANN ARBOR      CLOUDY    66  63  90 S6        29.97R
BAD AXE        LGT RAIN  64  60  88 CALM      29.96R
CARO           CLOUDY    62  60  95 CALM      29.96R
DETROIT CITY   CLOUDY    69  63  81 S5        29.97R
DETROIT        CLOUDY    68  63  84 SW7       29.98R HAZE
FLINT          CLOUDY    67  62  84 SW3       29.96S
GROSSE ILE     CLOUDY    64  63  94 S10       29.97R FOG
HILLSDALE      PTCLDY    64  61  92 CALM      29.99S
HOWELL         CLOUDY    65  64  96 S5        29.97S

CITY           SKY/WX    TMP DP  RH WIND       PRES   REMARKS
JACKSON        PTCLDY    65  62  90 S6        29.97S
LAMBERTVILLE   CLOUDY    69  63  81 S6        29.99S
LANSING        CLOUDY    64  62  93 S5        29.96S
LAPEER         MOCLDY    64  61  88 CALM      29.97R
MASON          PTCLDY    63  61  93 SE7       29.96F
MONROE         CLOUDY    67  64  88 S7        29.98R
PONTIAC        CLOUDY    67  63  87 S3        29.97R
PORT HOPE        N/A     66  59  78 CALM      29.93R
PORT HURON     CLOUDY    64  61  88 CALM      29.97R
TRI CITIES     LGT RAIN  66  62  87 S6        29.94F
MIDLAND        RAIN      61  60  97 CALM      29.92F
TROY           CLOUDY    70  65  84 CALM      29.99R
SAGINAW HB     LGT RAIN  64  61  88 S7        29.93F
$$
MIZ043>046-050>051-056>058-064>065-071>073-077>080-261200-
SOUTHWEST LOWER MICHIGAN

CITY           SKY/WX    TMP DP  RH WIND       PRES   REMARKS
BATTLE CREEK   CLEAR     63  61  93 S6        29.96F
BENTON HARBOR  CLEAR     66  63  90 S6        29.94R
BIG RAPIDS     CLOUDY    62  62  99 CALM      29.91S
COLDWATER      PTCLDY    65  63  93 SE6       29.97F
FREMONT        FAIR      62  62 100 CALM      29.91R
HOLLAND        PTCLDY    66  63  90 S10       29.93R
GRAND RAPIDS   CLOUDY    66  62  87 S12       29.92F
IONIA          CLOUDY    63  62  96 SE5       29.93S
KALAMAZOO      CLEAR     65  62  90 S8        29.95S
MARSHALL       PTCLDY    64  62  94 S3        29.96F
MOUNT PLEASANT CLOUDY    63  63  99 CALM      29.92S
MUSKEGON       CLOUDY    68  62  81 S14G24    29.90R
SOUTH HAVEN    CLEAR     65  64  99 S5        29.93R
$$
MIZ016>042-261200-
NORTHERN LOWER MICHIGAN

CITY           SKY/WX    TMP DP  RH WIND       PRES   REMARKS
ALPENA         MOCLDY    56  52  86 SE7       29.92S
BEAVER ISLAND  CLOUDY    58  57  99 SE5       29.87S FOG
BELLAIRE       CLOUDY    59  58  96 CALM      29.87F FOG
CADILLAC       CLOUDY    62  60  94 S5        29.90S
CHARLEVOIX     CLOUDY    60  60  99 SE3       29.89F
FRANKFORT      PTCLDY    65  63  93 S3        29.88R
GAYLORD        CLOUDY    61  58  90 S5        29.89F
HARBOR SPRINGS CLOUDY    60  58  95 E5        29.87F
HOUGHTON LAKE  CLOUDY    63  60  90 W3        29.91S
MANISTEE       CLEAR     63  57  82 CALM      29.89R
OSCODA         CLOUDY    58  55  91 S10       29.93R
PELLSTON       CLOUDY    59  57  93 CALM      29.88F
TRAVERSE CITY  CLOUDY    65  61  87 CALM      29.86S
$$
MIZ007>008-015-261200-
EASTERN UPPER MICHIGAN

CITY           SKY/WX    TMP DP  RH WIND       PRES   REMARKS
KINROSS          N/A     55  55 100 E13       29.89F
MACKINAC ISLAN CLOUDY    50  50 100 E13G21    29.88F
NEWBERRY       CLOUDY    56  56  97 SE10      29.87S
S. S. MARIE    MOCLDY    57  54  89 E9        29.89F
MUNISING         N/A     62  60  93 S7        29.82R
$$
MIZ004>006-011>014-085-261200-
CENTRAL UPPER MICHIGAN

CITY           SKY/WX    TMP DP  RH WIND       PRES   REMARKS
MANISTIQUE     DRZL/FOG  54  53  97 SE3       29.85S VSB 1/2
ESCANABA       CLOUDY    57  55  94 S7        29.83S VSB 1/4
MENOMINEE      FOG       57  57 100 SE3       29.84S VSB 1/4
SAWYER-GWINN   FOG       57  57 100 S8        29.81F VSB 3/4
$$
MIZ001>003-009>011-084-261200-
WESTERN UPPER MICHIGAN

CITY           SKY/WX    TMP DP  RH WIND       PRES   REMARKS
IRON MOUNTAIN  CLOUDY    61  59  93 S6        29.81S FOG
HOUGHTON       FOG       51  50  96 NE3       29.81F VSB<1/4
COPPER HARBOR    N/A     49  49 100 E3        29.80F
IRONWOOD       CLOUDY    54  52  94 CALM      29.80R
$$

ABBREVIATIONS USED IN REMARKS
   TC - TEMPERATURE IN CELSIUS
  WCI - WIND CHILL INDEX
   HX - HEAT INDEX
  VSB - VISIBILITY




USA.gov is the U.S. government's official web portal to all federal, state and local government web resources and services.